Content
SEND FEEDBACK

Daily
Averages
Monthly
Summary
United States of America

LAFAYETTE, OHIO


Home > North America > United States > Ohio
Elevation: 882 feet     Latitude: 40 43N     Longitude: 084 07W

WEATHER
 
SELECT A DAY
Number of Records: 187,172;   Date Range: 1/28/98 - 11/24/14
 
SHARE

PRINT THIS DATA

[ ← Previous Day ]
WEATHER ALMANAC - JANUARY 31, 2013
[ Next Day → ]
[ °C ]   °F
Weather ElementAverageHighLow
Temperature22.7 °F32 °F (12:53 am)15.1 °F (11:53 pm)
Dewpoint14.4 °F25 °F (12:53 am)5 °F (11:53 pm)
Humidity70.7 %80 % (2:24 am)57 % (4:53 pm)
Barometer29.78 in30.00 in (11:53 pm)29.47 in (12:53 am)
Wind Speed22.6 mph33.4 mph (2:53 am)
Wind Gust44.9 mph (5:53 am)
Weather ElementAverage
Visibility6.2 mi
Wind DirectionW (267.6 °)

Weather ElementTotal
Precipitation---
Heating Degree Days41.5 (Base 65)
Averaged from 54 records on January 31, 2013
WEATHER CONDITIONS BREAKOUT
WIND DIRECTION BREAKOUT
WEATHER BY HOUR - JANUARY 31, 2013
[ °C ]   °F
Local TimeTemperatureDewpointHumidityBarometerVisibilityWind DirectionWind SpeedGust SpeedPrecipitationEventsConditions
12:53 AM32.0 °F25.0 °F75 %29.47 in7.0 miWest (270°)19.6 mph33.4 mph0.00 inSnowLight Snow
1:53 AM30.0 °F23.0 °F75 %29.51 in9.0 miWest (260°)24.2 mph36.8 mph0.00 inSnowLight Snow
2:13 AM30.2 °F21.2 °F69 %29.52 in9.0 miWest (270°)28.8 mph40.3 mph0.00 inSnowLight Snow
2:24 AM28.4 °F23.0 °F80 %29.53 in6.0 miWest (260°)29.9 mph38.0 mph0.00 inSnowLight Snow
2:53 AM28.0 °F21.0 °F75 %29.56 in8.0 miWest (260°)33.4 mph41.4 mph0.00 inSnowLight Snow
3:53 AM26.1 °F18.0 °F71 %29.60 in5.0 miWest (260°)27.6 mph43.7 mph0.00 inSnowLight Snow
4:53 AM24.1 °F16.0 °F71 %29.63 in8.0 miWest (260°)27.6 mph38.0 mph0.00 inSnowLight Snow
5:53 AM24.1 °F12.9 °F62 %29.67 in10.0 miWest (270°)24.2 mph44.9 mph0.00 inOvercast
6:10 AM23.0 °F17.6 °F80 %29.65 in2.0 miWest (260°)20.7 mph32.2 mph0.00 inSnowLight Snow
6:17 AM23.0 °F17.6 °F80 %29.65 in1.5 miWest (260°)19.6 mph27.6 mph0.00 inSnowLight Snow
6:33 AM23.0 °F15.8 °F74 %29.66 in3.0 miWest (270°)25.3 mph35.7 mph0.00 inSnowLight Snow
6:41 AM23.0 °F15.8 °F74 %29.66 in9.0 miWest (270°)23.0 mph31.1 mph0.00 inOvercast
6:53 AM23.0 °F14.0 °F68 %29.69 in10.0 miWest (260°)26.5 mph36.8 mph0.00 inSnowLight Snow
7:53 AM19.9 °F10.9 °F68 %29.74 in9.0 miWest (260°)28.8 mph36.8 mph0.00 inSnowLight Snow
8:09 AM19.4 °F8.6 °F63 %29.72 in10.0 miWest (260°)23.0 mph40.3 mph0.00 inOvercast
8:53 AM19.9 °F12.9 °F74 %29.77 in2.5 miWest (270°)20.7 mph26.5 mph0.00 inSnowLight Snow
8:56 AM19.4 °F12.2 °F74 %29.74 in1.8 miWest (270°)18.4 mph0.00 inSnowLight Snow
9:23 AM19.4 °F12.2 °F74 %29.75 in3.0 miWest (270°)28.8 mph38.0 mph0.00 inSnowLight Snow
9:53 AM21.0 °F12.9 °F71 %29.80 in8.0 miWSW (250°)24.2 mph32.2 mph0.00 inSnowLight Snow
10:53 AM21.9 °F12.9 °F68 %29.83 in10.0 miWest (260°)26.5 mph36.8 mph0.00 inOvercast
11:35 AM23.0 °F15.8 °F74 %29.80 in5.0 miWSW (250°)21.9 mph27.6 mph0.00 inSnowLight Snow
11:51 AM23.0 °F15.8 °F74 %29.80 in5.0 miWest (260°)20.7 mph26.5 mph0.00 inSnowLight Snow
11:53 AM24.1 °F16.0 °F71 %29.83 in6.0 miWSW (250°)19.6 mph26.5 mph0.00 inSnowLight Snow
12:15 PM24.8 °F15.8 °F69 %29.79 in7.0 miWest (260°)24.2 mph33.4 mph0.00 inSnowLight Snow
12:53 PM26.1 °F12.9 °F58 %29.82 in10.0 miWest (260°)27.6 mph35.7 mph0.00 inOvercast
1:32 PM24.8 °F17.6 °F74 %29.79 in1.2 miWest (260°)27.6 mph0.00 inSnowLight Snow
1:36 PM24.8 °F19.4 °F80 %29.79 in0.5 miWSW (250°)26.5 mph32.2 mph0.00 inSnowSnow
1:43 PM26.6 °F17.6 °F69 %29.79 in1.2 miWSW (250°)26.5 mph36.8 mph0.00 inSnowLight Snow
1:46 PM26.6 °F17.6 °F69 %29.79 in3.0 miWSW (250°)24.2 mph36.8 mph0.00 inSnowLight Snow
1:53 PM26.1 °F17.1 °F69 %29.83 in9.0 miWSW (250°)23.0 mph34.5 mph0.00 inOvercast
2:24 PM26.6 °F19.4 °F74 %29.80 in4.0 miWSW (250°)21.9 mph0.00 inSnowLight Snow
2:49 PM26.6 °F15.8 °F64 %29.80 in4.0 miWSW (250°)28.8 mph38.0 mph0.00 inSnowLight Snow
2:53 PM26.1 °F16.0 °F66 %29.83 in4.0 miWest (260°)27.6 mph40.3 mph0.00 inSnowLight Snow
3:53 PM25.0 °F15.1 °F66 %29.84 in10.0 miWest (270°)23.0 mph35.7 mph0.00 inOvercast
4:53 PM24.1 °F10.9 °F57 %29.86 in10.0 miWest (270°)24.2 mph34.5 mphMostly Cloudy
5:53 PM21.9 °F14.0 °F72 %29.87 in5.0 miWest (270°)23.0 mph29.9 mph0.00 inSnowLight Snow
6:02 PM21.2 °F14.0 °F74 %29.83 in2.5 miWest (270°)16.1 mph27.6 mph0.00 inSnowLight Snow
6:09 PM21.2 °F14.0 °F74 %29.83 in5.0 miWest (270°)19.6 mph25.3 mph0.00 inSnowLight Snow
6:25 PM21.2 °F12.2 °F68 %29.84 in8.0 miWest (270°)23.0 mph26.5 mph0.00 inSnowLight Snow
6:53 PM21.9 °F12.9 °F68 %29.90 in9.0 miWest (270°)16.1 mph0.00 inOvercast
7:22 PM21.2 °F12.2 °F68 %29.87 in9.0 miWest (270°)18.4 mph24.2 mph0.00 inSnowLight Snow
7:32 PM21.2 °F12.2 °F68 %29.87 in6.0 miWest (280°)15.0 mph21.9 mph0.00 inSnowLight Snow
7:49 PM21.2 °F14.0 °F74 %29.88 in2.5 miWNW (290°)19.6 mph26.5 mph0.00 inSnowLight Snow
7:53 PM19.9 °F14.0 °F78 %29.93 in1.8 miWNW (290°)18.4 mph26.5 mph0.00 inSnowLight Snow
8:05 PM19.4 °F14.0 °F80 %29.88 in3.0 miWNW (290°)16.1 mph0.00 inSnowLight Snow
8:36 PM19.4 °F10.4 °F68 %29.89 in10.0 miWNW (290°)16.1 mph26.5 mph0.00 inOvercast
8:53 PM19.0 °F10.9 °F71 %29.94 in9.0 miWNW (290°)16.1 mph25.3 mph0.00 inSnowLight Snow
9:18 PM19.4 °F8.6 °F63 %29.90 in10.0 miWest (280°)21.9 mph28.8 mph0.00 inOvercast
10:08 PM17.6 °F10.4 °F73 %29.91 in1.8 miWNW (290°)19.6 mph27.6 mph0.00 inSnowLight Snow
10:14 PM17.6 °F10.4 °F73 %29.91 in3.0 miWNW (300°)17.3 mph27.6 mph0.00 inSnowLight Snow
10:26 PM15.8 °F6.8 °F68 %29.91 in9.0 miWNW (290°)17.3 mph25.3 mph0.00 inMostly Cloudy
10:53 PM16.0 °F6.1 °F65 %29.96 in10.0 miWest (280°)16.1 mph25.3 mph0.00 inClear
11:31 PM15.8 °F6.8 °F68 %29.94 in10.0 miWest (270°)23.0 mph27.6 mphMostly Cloudy
11:53 PM15.1 °F5.0 °F64 %30.00 in10.0 miWest (280°)20.7 mph32.2 mphOvercast
Hourly data recorded from KAOH, located miles away from Lafayette, Ohio







STORIES FROM OUR PARTNERS